Regional Weather Roundup
Issued by NWS Wilmington, NC

Home | Current Version | Previous Version | Text Only | Print | Product List | Glossary On
Versions: 1 2 3 4 5 6 7 8 9 10 11 12 13 14 15 16 17 18 19 20 21 22 23 24 25 26 27 28
000
ASUS42 KILM 190010
RWRILM
RWRILM
REGIONAL HOURLY WEATHER ROUNDUP
NATIONAL WEATHER SERVICE WILMINGTON NC
800 PM EDT FRI APR 18 2014

NOTE: "FAIR" INDICATES FEW OR NO CLOUDS BELOW 12,000 FEET WITH NO
SIGNIFICANT WEATHER AND/OR OBSTRUCTIONS TO VISIBILITY.

...............WFO WILMINGTON COUNTY WARNING AREA...............

......COASTAL NC AND SC COUNTIES......

CITY           SKY/WX    TMP DP  RH WIND       PRES   REMARKS
WILMINGTON     RAIN      58  54  86 NE9       30.19F FOG
SOUTHPORT      RAIN      56  54  92 NE9       30.18S
N MYRTLE BEACH RAIN      57  55  93 N6        30.20R FOG
MYRTLE BEACH   LGT RAIN  57  55  94 N12       30.18R FOG

......INLAND NC AND SC COUNTIES.......

CITY           SKY/WX    TMP DP  RH WIND       PRES   REMARKS
LUMBERTON      LGT RAIN  59  50  72 NE5       30.22R
ELIZABETHTOWN  LGT RAIN  59  49  70 CALM      30.22R
WHITEVILLE     HVY RAIN  56  54  92 CALM      30.22R
FLORENCE       RAIN      56  54  93 NE7       30.20S FOG
DARLINGTON     CLOUDY    55  50  82 N7        30.23R

....................REST OF NORTH CAROLINA......................

.........EASTERN NC.........

CITY           SKY/WX    TMP DP  RH WIND       PRES   REMARKS
CAPE HATTERAS  CLOUDY    51  49  92 NE10G23   30.25S
JACKSONVILLE   CLOUDY    59  48  67 N13       30.21F
MOREHEAD CITY  CLOUDY    56  46  69 NE14G22   30.23R
KENANSVILLE    CLOUDY    60  47  61 N5        30.23S
NEW BERN       CLOUDY    59  47  64 NE10      30.26R
ELIZABETH CITY CLOUDY    48  41  76 N9        30.31S

.........CENTRAL NC.........

CITY           SKY/WX    TMP DP  RH WIND       PRES   REMARKS
RALEIGH DURHAM CLOUDY    56  40  55 NE6       30.26S
ROCKY MOUNT    CLOUDY    56  44  64 NE6       30.26F
ROANOKE RAPIDS NOT AVBL
FAYETTEVILLE   CLOUDY    61  45  55 NE8       30.21S
HOFFMAN        LGT RAIN  56  50  79 N6        30.24S

.........WESTERN NC.........

CITY           SKY/WX    TMP DP  RH WIND       PRES   REMARKS
CHARLOTTE      RAIN      49  47  93 N9        30.26S FOG
GREENSBORO     CLOUDY    55  38  52 N6        30.25S
HICKORY        NOT AVBL
BOONE          NOT AVBL
ASHEVILLE      NOT AVBL

.....................REST OF SOUTH CAROLINA.....................

.........EASTERN SC.........

CITY           SKY/WX    TMP DP  RH WIND       PRES   REMARKS
CHARLESTON     HVY RAIN  59  56  89 NE18G30   30.07F FOG
BEAUFORT MCAS  HVY RAIN  59  57  93 E18       30.01F FOG
HILTON HEAD    NOT AVBL

.........CENTRAL SC.........

CITY           SKY/WX    TMP DP  RH WIND       PRES   REMARKS
COLUMBIA       RAIN      55  52  89 NE9       30.16F FOG
ORANGEBURG     RAIN      54  51  90 E10G31    30.12F FOG
SUMTER SHAW    HVY RAIN  53  52  94 NE12      30.15F FOG

.........WESTERN SC.........

CITY           SKY/WX    TMP DP  RH WIND       PRES   REMARKS
GREENVILLE     NOT AVBL
ROCK HILL      RAIN      49  46  90 NE10G16   30.24F FOG
ANDERSON       LGT RAIN  49  47  93 NE10G18   30.18F
CLEMSON        NOT AVBL
GREENWOOD      LGT RAIN  50  46  86 N15G22    30.19F


...................COASTAL AND OFFSHORE REPORTS..................

................LOCAL PIERS AND NC RESERVE................


STATION/POSITION TIME  SKY/WX   TEMP    WIND        PRES    VSBY
                                AIR SEA DIR/SP/G
                 (UTC)          (F)     (DEG/KT/KT) (MB)    (MI)
JOHNY MRCER PIER 0000            58 61   50/ 18/ 20 1021.4F
NC RESRV MASNBRO 2300            59      10/  5     1022.0S
OCEAN CREST PIER 0000            58 62   50/ 15/ 19 1020.3F
SPRINGMAID  PIER 0000            57 62   10/ 10/ 12 1021.9F


................COASTAL AND OFFSHORE BUOYS................


STATION/POSITION TIME  SKY/WX   TEMP    WIND        PRES    VSBY
                                AIR SEA DIR/SP/G
                 (UTC)          (F)     (DEG/KT/KT) (MB)    (MI)
DIMNDSHOAL 41025 NOT AVBL
CAPE LOOKOUT     2300            55      30/ 22/ 24 1023.2F
ONSLOW BAY 41036 0000            58 65   40/ 23/ 29 1021.9F
WVE H/P(F/S)=  7/ 7 WND WVE H/P(F/S)=  7/ 7 SWL H/P/D(F/S/D)=  3/110/ 9

5 WRITEBCH 41038 2300            59 59   40/ 14/ 17 1022.2F
MASONBORO  41110 0000               60                N/A
WVE H/P(F/S)=  5/10 WND WVE H/P(F/S)=  5/10 SWL H/P/D(F/S/D)=  2/100/11

WILM HARBR 41108 0000               60                N/A
WVE H/P(F/S)=  5/ 5 WND WVE H/P(F/S)=  5/ 5

27WRITEBCH 41037 2300            56      60/ 21/ 25 1021.7F
FRYING PAN 41013 0000            60 64   60/ 23/ 29 1020.0R
WVE H/P(F/S)=  9/ 7 WND WVE H/P(F/S)=  8/ 7 SWL H/P/D(F/S/D)=  3/ 90/10

SUNST NRSH 41024 2300            59      50/ 16/ 19 1020.2F
CAPRS NRSH 41029 2300                    70/ 27/ 33   N/A
EDISTO     41004 NOT AVBL


..........OFFSHORE BUOYS BEYOND 100 NM OFFSHORE...........
.....IN A TRIANGLE---HAT TO BERMUDA TO BAHAMAS TO HAT.....


STATION/POSITION TIME  SKY/WX   TEMP    WIND        PRES    VSBY
                                AIR SEA DIR/SP/G
                 (UTC)          (F)     (DEG/KT/KT) (MB)    (MI)
150E HAT   41001 NOT AVBL
W BERMUDA  41048 NOT AVBL
ATLANTIC S 41049 2242            74 75  100/ 16/ 21 1024.7R
WVE H/P(F/S)=  8/ 9 WND WVE H/P(F/S)=  3/ 6 SWL H/P/D(F/S/D)=  7/ 90/ 9

E BAHAMAS  41046 NOT AVBL
NE BAHAMAS 41047 NOT AVBL
120E CANVRL41010 0000            76 76  140/ 17/ 21 1016.3F
WVE H/P(F/S)=  8/10 WND WVE H/P(F/S)=  5/ 7 SWL H/P/D(F/S/D)=  5/ 50/10


END



USA.gov is the U.S. government's official web portal to all federal, state and local government web resources and services.